This is the latest recevied weather packets stored in our database for station/object KE0PRS. If no packets are shown the sender has not sent any weather packets the latest 1 day(s).
| Time | Temp. | Humidity | Pressure | Rain* | Wind** | Luminosity | Snow |
|---|---|---|---|---|---|---|---|
| 1777979819 | 11.11° C | 49% | 1010 hPa | 0 mm | 1.34 m/s, 340° | 0 W/m² | - |
| 1777979515 | 11.11° C | 48% | 1009.9 hPa | 0 mm | 2.24 m/s, 45° | 0 W/m² | - |
| 1777979211 | 11.11° C | 48% | 1009.7 hPa | 0 mm | 0.89 m/s, 338° | 0 W/m² | - |
| 1777978909 | 11.11° C | 47% | 1009.6 hPa | 0 mm | 3.58 m/s, 41° | 0 W/m² | - |
| 1777978606 | 11.11° C | 47% | 1009.5 hPa | 0 mm | 3.13 m/s, 22° | 0 W/m² | - |
| 1777978301 | 11.11° C | 47% | 1009.5 hPa | 0 mm | 2.24 m/s, 47° | 0 W/m² | - |
| 1777977998 | 11.11° C | 47% | 1009.2 hPa | 0 mm | 1.79 m/s, 25° | 0 W/m² | - |
| 1777977696 | 11.11° C | 47% | 1009.2 hPa | 0 mm | 0.89 m/s, 155° | 0 W/m² | - |
| 1777977392 | 11.67° C | 47% | 1009.2 hPa | 0 mm | 3.13 m/s, 355° | 0 W/m² | - |
| 1777977090 | 11.67° C | 47% | 1009.6 hPa | 0 mm | 3.13 m/s, 79° | 0 W/m² | - |
| 1777976787 | 11.67° C | 46% | 1009.4 hPa | 0 mm | 0.89 m/s, 46° | 0 W/m² | - |
| 1777976485 | 11.67° C | 47% | 1009.4 hPa | 0 mm | 1.79 m/s, 340° | 0 W/m² | - |
| 1777976183 | 11.67° C | 47% | 1009.2 hPa | 0 mm | 3.13 m/s, 30° | 0 W/m² | - |
| 1777975879 | 11.67° C | 47% | 1009 hPa | 0 mm | 0.89 m/s, 102° | 0 W/m² | - |
| 1777975575 | 11.67° C | 47% | 1008.9 hPa | 0 mm | 3.13 m/s, 26° | 0 W/m² | - |
| 1777975273 | 11.67° C | 47% | 1008.7 hPa | 0 mm | 5.36 m/s, 36° | 0 W/m² | - |
| 1777974969 | 11.67° C | 47% | 1008.3 hPa | 0 mm | 2.68 m/s, 8° | 0 W/m² | - |
| 1777974666 | 11.67° C | 47% | 1008.4 hPa | 0 mm | 4.47 m/s, 24° | 0 W/m² | - |
| 1777974362 | 11.67° C | 47% | 1008.6 hPa | 0 mm | 4.47 m/s, 31° | 0 W/m² | - |
| 1777974058 | 12.22° C | 48% | 1008.6 hPa | 0 mm | 2.68 m/s, 108° | 0 W/m² | - |
| 1777973754 | 12.22° C | 48% | 1008.4 hPa | 0 mm | 1.79 m/s, 26° | 0 W/m² | - |
| 1777973452 | 12.22° C | 47% | 1008.1 hPa | 0 mm | 2.68 m/s, 25° | 0 W/m² | - |
| 1777973149 | 12.22° C | 47% | 1008 hPa | 0 mm | 1.34 m/s, 64° | 0 W/m² | - |
| 1777972848 | 12.22° C | 47% | 1007.9 hPa | 0 mm | 3.13 m/s, 13° | 0 W/m² | - |
| 1777972544 | 12.22° C | 47% | 1007.6 hPa | 0 mm | 1.79 m/s, 13° | 0 W/m² | - |
* Rain latest hour (hover to see other rain measurements)
** Current wind speed in m/s (hover to see current wind gust speed)